Location: Avon
(37.7514°N, 90.2235°W)
Time: 12:27:34
(UTC+00:00)

A-11 Canister half - Pass Details

Date: 14 November 2025
Orbit: 1526 x 1681 km, 47.3° (Epoch: 05 December)

Event Time Altitude Azimuth Distance (km) Brightness Sun altitude
Rises 02:15:59 0° 267° (W) 4,869 12.5 -40.6°
Reaches altitude 10° 02:19:18 10° 272° (W) 3,863 11.7 -41.2°
Enters shadow 02:27:54 51° 330° (NNW) 1,945 9.5 -42.9°
